map of BTU home
BTU - Airport
Location
City:  Bintulu, Sarawak, Malaysia
ICAO:WBGB
IATA:BTU

Details
Type:Airport (Aerodrome, Airfield)
Use:Public/Civil
Latitude:307'26"N (3.123850)
Longitude:11301'14"E (113.020472)
Datum:WGS 1984
Elevation:74 ft (23 m)
Variation:0.03E (WMM2015 magnetic declination)
-0.07 annual change
Runways:1
Longest:9006 × 147 ft (2745 × 45 m), paved

Time
Time Zone:UTC+8
Local Time:

Weather
METAR:WBGB 180500Z VRB03KT 9999 SCT014 BKN300 32/26 Q1008
TAF:WBGB 180500Z 1806/1906 VRB03KT 9999 FEW016
TEMPO 1808/1812 35007KT 3000 TSRA FEW015CB

Related Locations
Nearby:
Farthest:FBA: 12368 mi / 19904 km
Fonte Boa, AM, BR

Find:

   beyond  
but within

Other Information
Maps:
NOTAMs:
Links:
Sources:

  
  • flag of Malaysia
  • flag of Sarawak
  

Sectional Chart

Flight Planning
at skyvector.com

Satellite Image

Google Maps Satellite view

 

Copyright © 2004-2019 Karl L. Swartz. All rights reserved.
The Great Circle Mapper name and logo are trademarks of the Great Circle Mapper.
All other trademarks mentioned herein belong to their respective owners.
Please see credits for attibutions and further copyright information.

  Follow gcmap on Facebook Follow gcmap on Twitter Follow gcmap on Google+ GCmap on LinkedIn

hCard Microformat

Geo Microformat